Time,TemperatureF,DewpointF,PressureIn,WindDirection,WindDirectionDegrees,WindSpeedMPH,WindSpeedGustMPH,Humidity,HourlyPrecipIn,Conditions,Clouds,dailyrainin,SoftwareType,DateUTC
2013-01-16 00:00:00,28.3,23.2,30.18,East,92,0.0,4.0,81,0.00,,,0.00,WUHU216DAVISVP2,2013-01-16 05:00:00,
2013-01-16 00:01:00,28.2,22.8,30.18,East,92,0.0,4.0,80,0.00,,,0.00,WUHU216DAVISVP2,2013-01-16 05:01:00,
2013-01-16 00:02:00,28.2,23.1,30.18,East,92,0.0,4.0,81,0.00,,,0.00,WUHU216DAVISVP2,2013-01-16 05:02:00,
2013-01-16 00:07:00,28.1,23.0,30.20,NE,36,0.0,4.0,81,0.00,,,0.00,WUHU216DAVISVP2,2013-01-16 05:07:00,
2013-01-16 00:13:00,28.0,22.9,30.19,NE,36,0.0,4.0,81,0.00,,,0.00,WUHU216DAVISVP2,2013-01-16 05:13:00,
2013-01-16 00:18:00,28.0,22.9,30.18,NE,36,0.0,4.0,81,0.00,,,0.00,WUHU216DAVISVP2,2013-01-16 05:18:00,
2013-01-16 00:23:00,27.9,22.5,30.18,NNE,22,0.0,4.0,80,0.00,,,0.00,WUHU216DAVISVP2,2013-01-16 05:23:00,
2013-01-16 00:28:00,27.8,22.7,30.18,NNE,22,0.0,4.0,81,0.00,,,0.00,WUHU216DAVISVP2,2013-01-16 05:28:00,
2013-01-16 00:33:00,27.8,22.4,30.17,NNE,22,0.0,4.0,80,0.00,,,0.00,WUHU216DAVISVP2,2013-01-16 05:33:00,
2013-01-16 00:38:00,27.8,22.7,30.17,NNE,22,4.0,4.0,81,0.00,,,0.00,WUHU216DAVISVP2,2013-01-16 05:38:00,
2013-01-16 00:43:00,27.7,22.3,30.17,NNE,22,0.0,4.0,80,0.00,,,0.00,WUHU216DAVISVP2,2013-01-16 05:43:00,
2013-01-16 00:48:00,27.7,22.6,30.16,NNE,22,0.0,4.0,81,0.00,,,0.00,WUHU216DAVISVP2,2013-01-16 05:48:00,
2013-01-16 00:53:00,27.7,22.3,30.16,NNE,22,0.0,2.0,80,0.00,,,0.00,WUHU216DAVISVP2,2013-01-16 05:53:00,
2013-01-16 00:58:00,27.7,22.6,30.16,NE,43,2.0,4.0,81,0.00,,,0.00,WUHU216DAVISVP2,2013-01-16 05:58:00,
2013-01-16 01:03:00,27.7,22.6,30.15,ENE,73,0.0,4.0,81,0.00,,,0.00,WUHU216DAVISVP2,2013-01-16 06:03:00,
2013-01-16 01:08:00,27.7,22.6,30.15,ENE,71,0.0,4.0,81,0.00,,,0.00,WUHU216DAVISVP2,2013-01-16 06:08:00,
2013-01-16 01:13:00,27.7,22.6,30.14,ENE,71,0.0,4.0,81,0.00,,,0.00,WUHU216DAVISVP2,2013-01-16 06:13:00,
2013-01-16 01:18:00,27.8,22.7,30.15,ENE,71,0.0,2.0,81,0.00,,,0.00,WUHU216DAVISVP2,2013-01-16 06:18:00,
2013-01-16 01:23:00,27.8,22.7,30.15,ENE,71,0.0,2.0,81,0.00,,,0.00,WUHU216DAVISVP2,2013-01-16 06:23:00,
2013-01-16 01:28:00,27.8,22.7,30.14,ENE,71,0.0,0.0,81,0.00,,,0.00,WUHU216DAVISVP2,2013-01-16 06:28:00,
2013-01-16 01:33:00,27.9,22.8,30.14,ENE,71,0.0,0.0,81,0.00,,,0.00,WUHU216DAVISVP2,2013-01-16 06:33:00,
2013-01-16 01:38:00,27.9,22.8,30.15,ENE,71,0.0,0.0,81,0.00,,,0.00,WUHU216DAVISVP2,2013-01-16 06:38:00,
2013-01-16 01:43:00,27.9,23.1,30.14,ENE,71,0.0,0.0,82,0.00,,,0.00,WUHU216DAVISVP2,2013-01-16 06:43:00,
2013-01-16 01:48:00,27.9,23.1,30.14,ENE,71,0.0,0.0,82,0.00,,,0.00,WUHU216DAVISVP2,2013-01-16 06:48:00,
2013-01-16 01:54:00,27.9,23.1,30.15,ENE,71,0.0,0.0,82,0.00,,,0.00,WUHU216DAVISVP2,2013-01-16 06:54:00,
2013-01-16 01:59:00,27.9,23.1,30.14,ENE,71,0.0,0.0,82,0.00,,,0.00,WUHU216DAVISVP2,2013-01-16 06:59:00,
2013-01-16 02:04:00,27.9,23.1,30.14,ENE,71,0.0,0.0,82,0.00,,,0.00,WUHU216DAVISVP2,2013-01-16 07:04:00,
2013-01-16 02:09:00,28.0,22.9,30.14,ENE,71,0.0,0.0,81,0.00,,,0.00,WUHU216DAVISVP2,2013-01-16 07:09:00,
2013-01-16 02:14:00,27.9,22.8,30.14,ENE,71,0.0,0.0,81,0.00,,,0.00,WUHU216DAVISVP2,2013-01-16 07:14:00,
2013-01-16 02:19:00,27.9,22.8,30.15,ENE,71,0.0,0.0,81,0.00,,,0.00,WUHU216DAVISVP2,2013-01-16 07:19:00,
2013-01-16 02:24:00,27.9,22.8,30.15,ENE,71,0.0,0.0,81,0.00,,,0.00,WUHU216DAVISVP2,2013-01-16 07:24:00,
2013-01-16 02:29:00,27.9,22.8,30.14,ENE,71,0.0,0.0,81,0.00,,,0.00,WUHU216DAVISVP2,2013-01-16 07:29:00,
2013-01-16 02:34:00,27.9,22.8,30.15,ENE,71,0.0,0.0,81,0.00,,,0.00,WUHU216DAVISVP2,2013-01-16 07:34:00,
2013-01-16 02:39:00,27.8,22.7,30.15,ENE,71,0.0,0.0,81,0.00,,,0.00,WUHU216DAVISVP2,2013-01-16 07:39:00,
2013-01-16 02:44:00,27.8,22.7,30.13,ENE,71,0.0,0.0,81,0.00,,,0.00,WUHU216DAVISVP2,2013-01-16 07:44:00,
2013-01-16 02:49:00,27.8,23.0,30.13,ENE,71,0.0,0.0,82,0.00,,,0.00,WUHU216DAVISVP2,2013-01-16 07:49:00,
2013-01-16 02:54:00,27.8,23.0,30.13,ENE,71,0.0,0.0,82,0.00,,,0.00,WUHU216DAVISVP2,2013-01-16 07:54:00,
2013-01-16 02:59:00,27.7,22.6,30.13,ENE,71,0.0,2.0,81,0.00,,,0.00,WUHU216DAVISVP2,2013-01-16 07:59:00,
2013-01-16 03:04:00,27.6,22.8,30.12,ENE,71,0.0,2.0,82,0.00,,,0.00,WUHU216DAVISVP2,2013-01-16 08:04:00,
2013-01-16 03:09:00,27.6,22.8,30.12,ENE,71,0.0,0.0,82,0.00,,,0.00,WUHU216DAVISVP2,2013-01-16 08:09:00,
2013-01-16 03:15:00,27.6,22.8,30.12,ENE,71,0.0,0.0,82,0.00,,,0.00,WUHU216DAVISVP2,2013-01-16 08:15:00,
2013-01-16 03:20:00,27.5,22.7,30.14,ENE,71,0.0,2.0,82,0.00,,,0.00,WUHU216DAVISVP2,2013-01-16 08:20:00,
2013-01-16 03:26:00,27.5,22.7,30.13,ENE,71,0.0,2.0,82,0.00,,,0.00,WUHU216DAVISVP2,2013-01-16 08:26:00,
2013-01-16 03:31:00,27.6,22.8,30.13,ENE,71,0.0,0.0,82,0.00,,,0.00,WUHU216DAVISVP2,2013-01-16 08:31:00,
2013-01-16 03:36:00,27.6,22.8,30.12,ENE,71,0.0,2.0,82,0.00,,,0.00,WUHU216DAVISVP2,2013-01-16 08:36:00,
2013-01-16 03:41:00,27.6,22.5,30.11,ENE,71,0.0,2.0,81,0.00,,,0.00,WUHU216DAVISVP2,2013-01-16 08:41:00,
2013-01-16 03:46:00,27.6,22.5,30.11,ENE,71,0.0,2.0,81,0.00,,,0.00,WUHU216DAVISVP2,2013-01-16 08:46:00,
2013-01-16 03:51:00,27.6,22.8,30.11,ENE,71,0.0,2.0,82,0.00,,,0.00,WUHU216DAVISVP2,2013-01-16 08:51:00,
2013-01-16 03:56:00,27.6,22.8,30.10,ENE,71,0.0,0.0,82,0.00,,,0.00,WUHU216DAVISVP2,2013-01-16 08:56:00,
2013-01-16 04:01:00,27.7,22.9,30.11,ENE,71,0.0,0.0,82,0.00,,,0.00,WUHU216DAVISVP2,2013-01-16 09:01:00,
2013-01-16 04:06:00,27.7,22.9,30.10,ENE,71,0.0,0.0,82,0.00,,,0.00,WUHU216DAVISVP2,2013-01-16 09:06:00,
2013-01-16 04:11:00,27.7,22.9,30.10,ENE,71,0.0,0.0,82,0.00,,,0.00,WUHU216DAVISVP2,2013-01-16 09:11:00,
2013-01-16 04:16:00,27.7,22.9,30.10,ENE,71,0.0,0.0,82,0.00,,,0.00,WUHU216DAVISVP2,2013-01-16 09:16:00,
2013-01-16 04:21:00,27.8,23.0,30.09,ENE,71,0.0,0.0,82,0.00,,,0.00,WUHU216DAVISVP2,2013-01-16 09:21:00,
2013-01-16 04:26:00,27.8,23.0,30.09,ENE,71,0.0,0.0,82,0.00,,,0.00,WUHU216DAVISVP2,2013-01-16 09:26:00,
2013-01-16 04:31:00,27.8,23.0,30.09,ENE,71,0.0,0.0,82,0.00,,,0.00,WUHU216DAVISVP2,2013-01-16 09:31:00,
2013-01-16 04:36:00,27.8,23.0,30.09,ENE,71,0.0,0.0,82,0.00,,,0.00,WUHU216DAVISVP2,2013-01-16 09:36:00,
2013-01-16 04:41:00,27.8,23.3,30.08,ENE,71,0.0,0.0,83,0.00,,,0.00,WUHU216DAVISVP2,2013-01-16 09:41:00,
2013-01-16 04:46:00,27.9,23.4,30.08,ENE,71,0.0,2.0,83,0.00,,,0.00,WUHU216DAVISVP2,2013-01-16 09:46:00,
2013-01-16 04:51:00,27.8,23.0,30.07,ENE,71,0.0,2.0,82,0.00,,,0.00,WUHU216DAVISVP2,2013-01-16 09:51:00,
2013-01-16 04:56:00,27.8,23.0,30.07,ENE,71,0.0,0.0,82,0.00,,,0.00,WUHU216DAVISVP2,2013-01-16 09:56:00,
2013-01-16 05:01:00,27.8,23.0,30.06,ENE,71,0.0,4.0,82,0.00,,,0.00,WUHU216DAVISVP2,2013-01-16 10:01:00,
2013-01-16 05:06:00,27.8,23.0,30.06,ENE,71,0.0,4.0,82,0.00,,,0.00,WUHU216DAVISVP2,2013-01-16 10:06:00,
2013-01-16 05:11:00,27.9,23.1,30.07,ENE,71,0.0,4.0,82,0.00,,,0.00,WUHU216DAVISVP2,2013-01-16 10:11:00,
2013-01-16 05:16:00,27.9,23.1,30.06,NE,53,0.0,4.0,82,0.00,,,0.00,WUHU216DAVISVP2,2013-01-16 10:16:00,
2013-01-16 05:22:00,27.9,23.1,30.06,NE,53,0.0,4.0,82,0.00,,,0.00,WUHU216DAVISVP2,2013-01-16 10:22:00,
2013-01-16 05:27:00,27.9,23.1,30.06,NE,53,0.0,2.0,82,0.00,,,0.00,WUHU216DAVISVP2,2013-01-16 10:27:00,
2013-01-16 05:32:00,27.9,23.1,30.06,NE,53,0.0,2.0,82,0.00,,,0.00,WUHU216DAVISVP2,2013-01-16 10:32:00,
2013-01-16 05:37:00,27.9,23.1,30.06,NE,53,0.0,0.0,82,0.00,,,0.00,WUHU216DAVISVP2,2013-01-16 10:37:00,
2013-01-16 05:42:00,27.9,23.1,30.07,NE,53,0.0,0.0,82,0.00,,,0.00,WUHU216DAVISVP2,2013-01-16 10:42:00,
2013-01-16 05:47:00,27.9,23.1,30.07,NE,53,0.0,0.0,82,0.00,,,0.00,WUHU216DAVISVP2,2013-01-16 10:47:00,
2013-01-16 05:52:00,27.9,23.4,30.06,NE,53,0.0,0.0,83,0.00,,,0.00,WUHU216DAVISVP2,2013-01-16 10:52:00,
2013-01-16 05:57:00,27.9,23.4,30.05,NE,53,0.0,0.0,83,0.00,,,0.00,WUHU216DAVISVP2,2013-01-16 10:57:00,
2013-01-16 06:02:00,28.0,23.5,30.06,NE,53,0.0,0.0,83,0.00,,,0.00,WUHU216DAVISVP2,2013-01-16 11:02:00,
2013-01-16 06:07:00,28.0,23.8,30.06,NE,53,0.0,0.0,84,0.00,,,0.00,WUHU216DAVISVP2,2013-01-16 11:07:00,
2013-01-16 06:12:00,28.1,23.9,30.06,NE,53,0.0,0.0,84,0.00,,,0.00,WUHU216DAVISVP2,2013-01-16 11:12:00,
2013-01-16 06:17:00,28.1,23.9,30.06,NE,53,0.0,0.0,84,0.00,,,0.00,WUHU216DAVISVP2,2013-01-16 11:17:00,
2013-01-16 06:22:00,28.1,23.9,30.06,NE,53,0.0,0.0,84,0.00,,,0.00,WUHU216DAVISVP2,2013-01-16 11:22:00,
2013-01-16 06:27:00,28.1,23.9,30.06,NE,53,0.0,0.0,84,0.00,,,0.00,WUHU216DAVISVP2,2013-01-16 11:27:00,
2013-01-16 06:32:00,28.2,24.0,30.06,NE,53,0.0,0.0,84,0.00,,,0.00,WUHU216DAVISVP2,2013-01-16 11:32:00,
2013-01-16 06:37:00,28.2,24.0,30.05,NE,53,0.0,0.0,84,0.00,,,0.00,WUHU216DAVISVP2,2013-01-16 11:37:00,
2013-01-16 06:42:00,28.3,24.1,30.05,NE,53,0.0,0.0,84,0.00,,,0.00,WUHU216DAVISVP2,2013-01-16 11:42:00,
2013-01-16 06:47:00,28.3,23.8,30.05,NE,53,0.0,0.0,83,0.00,,,0.00,WUHU216DAVISVP2,2013-01-16 11:47:00,
2013-01-16 06:52:00,28.3,23.8,30.05,NE,53,0.0,0.0,83,0.00,,,0.00,WUHU216DAVISVP2,2013-01-16 11:52:00,
2013-01-16 06:57:00,28.3,23.8,30.05,NE,53,0.0,0.0,83,0.00,,,0.00,WUHU216DAVISVP2,2013-01-16 11:57:00,
2013-01-16 07:02:00,28.4,23.9,30.05,NE,53,0.0,0.0,83,0.00,,,0.00,WUHU216DAVISVP2,2013-01-16 12:02:00,
2013-01-16 07:07:00,28.4,23.9,30.05,NE,53,0.0,0.0,83,0.00,,,0.00,WUHU216DAVISVP2,2013-01-16 12:07:00,
2013-01-16 07:13:00,28.4,24.2,30.05,NE,53,0.0,0.0,84,0.00,,,0.00,WUHU216DAVISVP2,2013-01-16 12:13:00,
2013-01-16 07:18:00,28.4,24.2,30.05,NE,53,0.0,0.0,84,0.00,,,0.00,WUHU216DAVISVP2,2013-01-16 12:18:00,
2013-01-16 07:23:00,28.4,23.9,30.05,NE,53,0.0,0.0,83,0.00,,,0.00,WUHU216DAVISVP2,2013-01-16 12:23:00,
2013-01-16 07:28:00,28.4,23.9,30.05,NE,53,0.0,0.0,83,0.00,,,0.00,WUHU216DAVISVP2,2013-01-16 12:28:00,
2013-01-16 07:33:00,28.4,23.9,30.04,NE,53,0.0,2.0,83,0.00,,,0.00,WUHU216DAVISVP2,2013-01-16 12:33:00,
2013-01-16 07:38:00,28.4,23.9,30.03,NE,53,2.0,2.0,83,0.00,,,0.00,WUHU216DAVISVP2,2013-01-16 12:38:00,
2013-01-16 07:43:00,28.4,23.9,30.03,East,98,0.0,4.0,83,0.00,,,0.00,WUHU216DAVISVP2,2013-01-16 12:43:00,
2013-01-16 07:48:00,28.4,23.9,30.03,East,98,0.0,4.0,83,0.00,,,0.00,WUHU216DAVISVP2,2013-01-16 12:48:00,
2013-01-16 07:53:00,28.4,23.9,30.03,ESE,109,2.0,2.0,83,0.00,,,0.00,WUHU216DAVISVP2,2013-01-16 12:53:00,
2013-01-16 07:58:00,28.4,23.6,30.02,SE,143,0.0,4.0,82,0.00,,,0.00,WUHU216DAVISVP2,2013-01-16 12:58:00,
2013-01-16 08:03:00,28.5,23.7,30.02,SE,142,0.0,4.0,82,0.00,,,0.00,WUHU216DAVISVP2,2013-01-16 13:03:00,
2013-01-16 08:08:00,28.5,23.4,30.03,SE,143,0.0,4.0,81,0.00,,,0.00,WUHU216DAVISVP2,2013-01-16 13:08:00,
2013-01-16 08:13:00,28.6,23.5,30.03,SE,143,0.0,2.0,81,0.00,,,0.00,WUHU216DAVISVP2,2013-01-16 13:13:00,
2013-01-16 08:18:00,28.7,23.6,30.03,SSE,158,0.0,4.0,81,0.00,,,0.00,WUHU216DAVISVP2,2013-01-16 13:18:00,
2013-01-16 08:23:00,28.7,23.9,30.03,South,184,2.0,4.0,82,0.00,,,0.00,WUHU216DAVISVP2,2013-01-16 13:23:00,
2013-01-16 08:28:00,28.8,24.0,30.03,SSE,162,0.0,6.0,82,0.00,,,0.00,WUHU216DAVISVP2,2013-01-16 13:28:00,
2013-01-16 08:33:00,28.9,24.1,30.02,SSE,168,0.0,6.0,82,0.00,,,0.00,WUHU216DAVISVP2,2013-01-16 13:33:00,
2013-01-16 08:38:00,28.9,23.8,30.02,SE,138,2.0,6.0,81,0.00,,,0.00,WUHU216DAVISVP2,2013-01-16 13:38:00,
2013-01-16 08:43:00,29.0,23.9,30.01,SSE,147,0.0,4.0,81,0.00,,,0.00,WUHU216DAVISVP2,2013-01-16 13:43:00,
2013-01-16 08:48:00,29.0,23.9,30.01,SSE,147,0.0,4.0,81,0.00,,,0.00,WUHU216DAVISVP2,2013-01-16 13:48:00,
2013-01-16 08:53:00,29.1,24.0,30.01,SSE,147,0.0,4.0,81,0.00,,,0.00,WUHU216DAVISVP2,2013-01-16 13:53:00,
2013-01-16 08:59:00,29.2,24.1,30.02,SSE,147,0.0,4.0,81,0.00,,,0.00,WUHU216DAVISVP2,2013-01-16 13:59:00,
2013-01-16 09:04:00,29.2,24.1,30.02,SSE,147,0.0,4.0,81,0.00,,,0.00,WUHU216DAVISVP2,2013-01-16 14:04:00,
2013-01-16 09:09:00,29.2,24.4,30.02,SSE,147,0.0,0.0,82,0.00,,,0.00,WUHU216DAVISVP2,2013-01-16 14:09:00,
2013-01-16 09:14:00,29.3,24.5,30.02,SW,221,4.0,4.0,82,0.00,,,0.00,WUHU216DAVISVP2,2013-01-16 14:14:00,
2013-01-16 09:19:00,29.4,24.6,30.01,South,180,2.0,6.0,82,0.00,,,0.00,WUHU216DAVISVP2,2013-01-16 14:19:00,
2013-01-16 09:24:00,29.5,24.4,30.01,South,172,0.0,6.0,81,0.00,,,0.00,WUHU216DAVISVP2,2013-01-16 14:24:00,
2013-01-16 09:29:00,29.6,24.5,30.01,SW,225,2.0,6.0,81,0.00,,,0.00,WUHU216DAVISVP2,2013-01-16 14:29:00,
2013-01-16 09:34:00,29.6,24.5,30.01,SSE,158,2.0,6.0,81,0.00,,,0.00,WUHU216DAVISVP2,2013-01-16 14:34:00,
2013-01-16 09:39:00,29.7,24.6,30.00,South,176,2.0,6.0,81,0.00,,,0.00,WUHU216DAVISVP2,2013-01-16 14:39:00,
2013-01-16 09:44:00,29.9,24.8,30.00,SW,215,0.0,8.0,81,0.00,,,0.00,WUHU216DAVISVP2,2013-01-16 14:44:00,
2013-01-16 09:49:00,30.0,24.9,30.00,South,188,0.0,8.0,81,0.00,,,0.00,WUHU216DAVISVP2,2013-01-16 14:49:00,
2013-01-16 09:54:00,30.1,24.7,30.00,SW,226,4.0,12.0,80,0.00,,,0.00,WUHU216DAVISVP2,2013-01-16 14:54:00,
2013-01-16 09:59:00,30.2,24.8,30.00,South,186,10.0,16.0,80,0.00,,,0.00,WUHU216DAVISVP2,2013-01-16 14:59:00,
2013-01-16 10:04:00,30.2,24.8,29.99,SSW,209,6.0,16.0,80,0.00,,,0.00,WUHU216DAVISVP2,2013-01-16 15:04:00,
2013-01-16 10:09:00,30.3,24.6,29.98,SSW,192,8.0,16.0,79,0.00,,,0.00,WUHU216DAVISVP2,2013-01-16 15:09:00,
2013-01-16 10:14:00,30.3,24.6,29.98,SSW,212,8.0,16.0,79,0.00,,,0.00,WUHU216DAVISVP2,2013-01-16 15:14:00,
2013-01-16 10:19:00,30.3,24.6,29.98,SSW,202,10.0,14.0,79,0.00,,,0.00,WUHU216DAVISVP2,2013-01-16 15:19:00,
2013-01-16 10:24:00,30.4,24.7,29.99,SW,219,4.0,14.0,79,0.00,,,0.00,WUHU216DAVISVP2,2013-01-16 15:24:00,
2013-01-16 10:29:00,30.5,25.1,29.99,South,173,0.0,10.0,80,0.00,,,0.00,WUHU216DAVISVP2,2013-01-16 15:29:00,
2013-01-16 10:35:00,30.7,25.0,29.99,SSW,200,8.0,14.0,79,0.00,,,0.00,WUHU216DAVISVP2,2013-01-16 15:35:00,
2013-01-16 10:40:00,30.7,24.7,29.99,SW,227,4.0,18.0,78,0.00,,,0.00,WUHU216DAVISVP2,2013-01-16 15:40:00,
2013-01-16 10:45:00,30.7,25.0,29.99,SW,217,10.0,18.0,79,0.00,,,0.00,WUHU216DAVISVP2,2013-01-16 15:45:00,
2013-01-16 10:50:00,30.7,25.0,29.99,SSW,209,2.0,16.0,79,0.00,,,0.00,WUHU216DAVISVP2,2013-01-16 15:50:00,
2013-01-16 10:55:00,30.7,25.0,30.00,WSW,248,4.0,18.0,79,0.00,,,0.00,WUHU216DAVISVP2,2013-01-16 15:55:00,
2013-01-16 11:00:00,30.7,25.3,30.00,SW,219,8.0,18.0,80,0.00,,,0.00,WUHU216DAVISVP2,2013-01-16 16:00:00,
2013-01-16 11:05:00,30.8,25.1,30.01,West,273,4.0,14.0,79,0.00,,,0.00,WUHU216DAVISVP2,2013-01-16 16:05:00,
2013-01-16 11:10:00,30.9,25.5,30.01,West,271,4.0,10.0,80,0.00,,,0.00,WUHU216DAVISVP2,2013-01-16 16:10:00,
2013-01-16 11:15:00,31.0,25.3,29.98,SSW,195,6.0,10.0,79,0.00,,,0.00,WUHU216DAVISVP2,2013-01-16 16:15:00,
2013-01-16 11:20:00,31.2,25.5,29.99,SW,227,6.0,10.0,79,0.00,,,0.00,WUHU216DAVISVP2,2013-01-16 16:20:00,
2013-01-16 11:25:00,31.4,25.4,29.98,WSW,240,2.0,12.0,78,0.00,,,0.00,WUHU216DAVISVP2,2013-01-16 16:25:00,
2013-01-16 11:30:00,31.6,25.5,29.99,South,191,2.0,12.0,78,0.00,,,0.00,WUHU216DAVISVP2,2013-01-16 16:30:00,
2013-01-16 11:35:00,31.9,25.5,30.00,WSW,244,4.0,8.0,77,0.00,,,0.00,WUHU216DAVISVP2,2013-01-16 16:35:00,
2013-01-16 11:40:00,32.1,25.4,29.99,West,264,4.0,10.0,76,0.00,,,0.00,WUHU216DAVISVP2,2013-01-16 16:40:00,
2013-01-16 11:45:00,32.2,25.8,29.99,WSW,252,4.0,10.0,77,0.00,,,0.00,WUHU216DAVISVP2,2013-01-16 16:45:00,
2013-01-16 11:50:00,32.3,25.6,29.98,SW,227,2.0,12.0,76,0.00,,,0.00,WUHU216DAVISVP2,2013-01-16 16:50:00,
2013-01-16 11:55:00,32.4,25.4,29.98,WNW,292,4.0,12.0,75,0.00,,,0.00,WUHU216DAVISVP2,2013-01-16 16:55:00,
2013-01-16 12:00:00,32.5,25.2,29.98,West,265,6.0,14.0,74,0.00,,,0.00,WUHU216DAVISVP2,2013-01-16 17:00:00,
2013-01-16 12:05:00,32.6,25.6,29.98,West,261,6.0,14.0,75,0.00,,,0.00,WUHU216DAVISVP2,2013-01-16 17:05:00,
2013-01-16 12:10:00,32.5,24.9,29.98,West,260,10.0,18.0,73,0.00,,,0.00,WUHU216DAVISVP2,2013-01-16 17:10:00,
2013-01-16 12:15:00,32.6,25.0,29.98,WSW,254,0.0,18.0,73,0.00,,,0.00,WUHU216DAVISVP2,2013-01-16 17:15:00,
2013-01-16 12:20:00,32.6,25.3,29.98,WSW,240,6.0,14.0,74,0.00,,,0.00,WUHU216DAVISVP2,2013-01-16 17:20:00,
2013-01-16 12:26:00,32.6,25.3,29.98,SW,230,6.0,10.0,74,0.00,,,0.00,WUHU216DAVISVP2,2013-01-16 17:26:00,
2013-01-16 12:31:00,32.7,25.4,29.98,WSW,247,4.0,10.0,74,0.00,,,0.00,WUHU216DAVISVP2,2013-01-16 17:31:00,
2013-01-16 12:36:00,32.9,25.2,29.97,West,281,6.0,10.0,73,0.00,,,0.00,WUHU216DAVISVP2,2013-01-16 17:36:00,
2013-01-16 12:41:00,33.0,25.3,29.97,West,277,6.0,8.0,73,0.00,,,0.00,WUHU216DAVISVP2,2013-01-16 17:41:00,
2013-01-16 12:46:00,33.1,24.8,29.97,WNW,287,6.0,12.0,71,0.00,,,0.00,WUHU216DAVISVP2,2013-01-16 17:46:00,
2013-01-16 12:51:00,33.2,24.9,29.97,WSW,250,6.0,12.0,71,0.00,,,0.00,WUHU216DAVISVP2,2013-01-16 17:51:00,
2013-01-16 12:56:00,33.3,24.3,29.97,SW,229,4.0,10.0,69,0.00,,,0.00,WUHU216DAVISVP2,2013-01-16 17:56:00,
2013-01-16 13:01:00,33.4,24.7,29.97,West,279,12.0,16.0,70,0.00,,,0.00,WUHU216DAVISVP2,2013-01-16 18:01:00,
2013-01-16 13:06:00,33.6,24.9,29.96,WSW,257,12.0,16.0,70,0.00,,,0.00,WUHU216DAVISVP2,2013-01-16 18:06:00,
2013-01-16 13:11:00,33.8,24.4,29.96,West,281,12.0,16.0,68,0.00,,,0.00,WUHU216DAVISVP2,2013-01-16 18:11:00,
2013-01-16 13:16:00,33.7,24.0,29.96,WSW,240,8.0,18.0,67,0.00,,,0.00,WUHU216DAVISVP2,2013-01-16 18:16:00,
2013-01-16 13:21:00,33.6,24.2,29.96,WNW,296,6.0,18.0,68,0.00,,,0.00,WUHU216DAVISVP2,2013-01-16 18:21:00,
2013-01-16 13:26:00,33.9,24.5,29.96,WNW,294,2.0,16.0,68,0.00,,,0.00,WUHU216DAVISVP2,2013-01-16 18:26:00,
2013-01-16 13:31:00,34.2,25.2,29.96,NW,321,6.0,12.0,69,0.00,,,0.00,WUHU216DAVISVP2,2013-01-16 18:31:00,
2013-01-16 13:36:00,34.0,24.6,29.97,West,259,4.0,14.0,68,0.00,,,0.00,WUHU216DAVISVP2,2013-01-16 18:36:00,
2013-01-16 13:41:00,34.1,24.7,29.96,WNW,299,8.0,14.0,68,0.00,,,0.00,WUHU216DAVISVP2,2013-01-16 18:41:00,
2013-01-16 13:46:00,34.2,24.8,29.96,West,277,2.0,12.0,68,0.00,,,0.00,WUHU216DAVISVP2,2013-01-16 18:46:00,
2013-01-16 13:51:00,34.3,24.5,29.95,West,277,2.0,12.0,67,0.00,,,0.00,WUHU216DAVISVP2,2013-01-16 18:51:00,
2013-01-16 13:56:00,34.3,24.5,29.95,West,273,6.0,16.0,67,0.00,,,0.00,WUHU216DAVISVP2,2013-01-16 18:56:00,
2013-01-16 14:02:00,34.4,25.0,29.95,NW,304,6.0,16.0,68,0.00,,,0.00,WUHU216DAVISVP2,2013-01-16 19:02:00,
2013-01-16 14:07:00,34.8,25.0,29.95,West,279,4.0,8.0,67,0.00,,,0.00,WUHU216DAVISVP2,2013-01-16 19:07:00,
2013-01-16 14:12:00,34.9,24.8,29.95,WNW,284,4.0,10.0,66,0.00,,,0.00,WUHU216DAVISVP2,2013-01-16 19:12:00,
2013-01-16 14:17:00,34.9,24.8,29.95,West,265,6.0,10.0,66,0.00,,,0.00,WUHU216DAVISVP2,2013-01-16 19:17:00,
2013-01-16 14:22:00,34.7,24.2,29.95,NW,307,4.0,14.0,65,0.00,,,0.00,WUHU216DAVISVP2,2013-01-16 19:22:00,
2013-01-16 14:27:00,34.7,24.2,29.95,West,267,4.0,14.0,65,0.00,,,0.00,WUHU216DAVISVP2,2013-01-16 19:27:00,
2013-01-16 14:32:00,35.0,24.9,29.94,SSE,154,6.0,16.0,66,0.00,,,0.00,WUHU216DAVISVP2,2013-01-16 19:32:00,
2013-01-16 14:37:00,35.2,24.7,29.94,WSW,256,2.0,16.0,65,0.00,,,0.00,WUHU216DAVISVP2,2013-01-16 19:37:00,
2013-01-16 14:42:00,35.4,24.5,29.94,West,279,8.0,16.0,64,0.00,,,0.00,WUHU216DAVISVP2,2013-01-16 19:42:00,
2013-01-16 14:47:00,35.3,24.4,29.94,SSW,207,4.0,16.0,64,0.00,,,0.00,WUHU216DAVISVP2,2013-01-16 19:47:00,
2013-01-16 14:52:00,35.4,24.1,29.94,SW,233,0.0,14.0,63,0.00,,,0.00,WUHU216DAVISVP2,2013-01-16 19:52:00,
2013-01-16 14:57:00,35.5,24.6,29.95,WNW,283,6.0,12.0,64,0.00,,,0.00,WUHU216DAVISVP2,2013-01-16 19:57:00,
2013-01-16 15:02:00,35.2,23.9,29.95,West,262,6.0,12.0,63,0.00,,,0.00,WUHU216DAVISVP2,2013-01-16 20:02:00,
2013-01-16 15:07:00,35.2,24.3,29.94,SW,229,4.0,16.0,64,0.00,,,0.00,WUHU216DAVISVP2,2013-01-16 20:07:00,
2013-01-16 15:12:00,35.2,23.9,29.94,WSW,247,6.0,16.0,63,0.00,,,0.00,WUHU216DAVISVP2,2013-01-16 20:12:00,
2013-01-16 15:17:00,35.2,23.9,29.94,WSW,248,10.0,14.0,63,0.00,,,0.00,WUHU216DAVISVP2,2013-01-16 20:17:00,
2013-01-16 15:22:00,35.2,23.9,29.94,SW,219,4.0,16.0,63,0.00,,,0.00,WUHU216DAVISVP2,2013-01-16 20:22:00,
2013-01-16 15:27:00,35.2,23.9,29.94,NW,312,6.0,16.0,63,0.00,,,0.00,WUHU216DAVISVP2,2013-01-16 20:27:00,
2013-01-16 15:32:00,35.1,23.4,29.94,SW,219,10.0,18.0,62,0.00,,,0.00,WUHU216DAVISVP2,2013-01-16 20:32:00,
2013-01-16 15:37:00,34.9,23.6,29.94,WSW,258,0.0,18.0,63,0.00,,,0.00,WUHU216DAVISVP2,2013-01-16 20:37:00,
2013-01-16 15:42:00,34.8,23.5,29.94,SW,233,2.0,18.0,63,0.00,,,0.00,WUHU216DAVISVP2,2013-01-16 20:42:00,
2013-01-16 15:47:00,34.8,23.9,29.94,WSW,237,4.0,18.0,64,0.00,,,0.00,WUHU216DAVISVP2,2013-01-16 20:47:00,
2013-01-16 15:52:00,34.7,23.5,29.94,West,270,6.0,18.0,63,0.00,,,0.00,WUHU216DAVISVP2,2013-01-16 20:52:00,
2013-01-16 15:57:00,34.8,23.5,29.94,SSW,209,4.0,16.0,63,0.00,,,0.00,WUHU216DAVISVP2,2013-01-16 20:57:00,
2013-01-16 16:02:00,34.7,23.8,29.94,WSW,246,6.0,10.0,64,0.00,,,0.00,WUHU216DAVISVP2,2013-01-16 21:02:00,
2013-01-16 16:07:00,34.6,23.4,29.94,West,273,8.0,22.0,63,0.00,,,0.00,WUHU216DAVISVP2,2013-01-16 21:07:00,
2013-01-16 16:12:00,34.5,23.3,29.94,SSW,193,2.0,22.0,63,0.00,,,0.00,WUHU216DAVISVP2,2013-01-16 21:12:00,
2013-01-16 16:17:00,34.4,23.2,29.95,West,265,4.0,14.0,63,0.00,,,0.00,WUHU216DAVISVP2,2013-01-16 21:17:00,
2013-01-16 16:22:00,34.4,23.2,29.95,West,267,2.0,12.0,63,0.00,,,0.00,WUHU216DAVISVP2,2013-01-16 21:22:00,
2013-01-16 16:27:00,34.3,23.5,29.95,SSW,204,8.0,10.0,64,0.00,,,0.00,WUHU216DAVISVP2,2013-01-16 21:27:00,
2013-01-16 16:32:00,34.3,22.7,29.95,SW,219,6.0,22.0,62,0.00,,,0.00,WUHU216DAVISVP2,2013-01-16 21:32:00,
2013-01-16 16:38:00,34.2,23.0,29.95,West,265,10.0,22.0,63,0.00,,,0.00,WUHU216DAVISVP2,2013-01-16 21:38:00,
2013-01-16 16:43:00,34.1,22.9,29.95,WSW,251,10.0,16.0,63,0.00,,,0.00,WUHU216DAVISVP2,2013-01-16 21:43:00,
2013-01-16 16:48:00,34.0,22.8,29.95,WNW,302,6.0,16.0,63,0.00,,,0.00,WUHU216DAVISVP2,2013-01-16 21:48:00,
2013-01-16 16:53:00,33.9,22.3,29.95,SW,227,8.0,16.0,62,0.00,,,0.00,WUHU216DAVISVP2,2013-01-16 21:53:00,
2013-01-16 16:58:00,33.8,22.6,29.96,WSW,247,2.0,16.0,63,0.00,,,0.00,WUHU216DAVISVP2,2013-01-16 21:58:00,
2013-01-16 17:03:00,33.7,22.5,29.97,South,184,14.0,16.0,63,0.00,,,0.00,WUHU216DAVISVP2,2013-01-16 22:03:00,
2013-01-16 17:08:00,33.6,22.8,29.96,SW,230,2.0,14.0,64,0.00,,,0.00,WUHU216DAVISVP2,2013-01-16 22:08:00,
2013-01-16 17:13:00,33.5,23.1,29.97,WSW,252,4.0,14.0,65,0.00,,,0.00,WUHU216DAVISVP2,2013-01-16 22:13:00,
2013-01-16 17:18:00,33.4,22.2,29.97,WSW,246,6.0,14.0,63,0.00,,,0.00,WUHU216DAVISVP2,2013-01-16 22:18:00,
2013-01-16 17:23:00,33.4,22.2,29.97,WSW,237,4.0,14.0,63,0.00,,,0.00,WUHU216DAVISVP2,2013-01-16 22:23:00,
2013-01-16 17:28:00,33.3,22.1,29.97,West,262,8.0,14.0,63,0.00,,,0.00,WUHU216DAVISVP2,2013-01-16 22:28:00,
2013-01-16 17:33:00,33.4,21.8,29.97,SSW,199,6.0,16.0,62,0.00,,,0.00,WUHU216DAVISVP2,2013-01-16 22:33:00,
2013-01-16 17:38:00,33.3,21.7,29.97,WSW,238,6.0,16.0,62,0.00,,,0.00,WUHU216DAVISVP2,2013-01-16 22:38:00,
2013-01-16 17:43:00,33.3,21.7,29.97,West,267,8.0,22.0,62,0.00,,,0.00,WUHU216DAVISVP2,2013-01-16 22:43:00,
2013-01-16 17:48:00,33.5,21.5,29.97,West,261,2.0,22.0,61,0.00,,,0.00,WUHU216DAVISVP2,2013-01-16 22:48:00,
2013-01-16 17:53:00,33.4,21.4,29.97,SW,223,6.0,16.0,61,0.00,,,0.00,WUHU216DAVISVP2,2013-01-16 22:53:00,
2013-01-16 17:58:00,33.4,21.4,29.98,SSW,200,8.0,16.0,61,0.00,,,0.00,WUHU216DAVISVP2,2013-01-16 22:58:00,
2013-01-16 18:03:00,33.5,21.5,29.98,SSW,200,4.0,14.0,61,0.00,,,0.00,WUHU216DAVISVP2,2013-01-16 23:03:00,
2013-01-16 18:08:00,33.5,21.5,29.98,WSW,242,2.0,14.0,61,0.00,,,0.00,WUHU216DAVISVP2,2013-01-16 23:08:00,
2013-01-16 18:13:00,33.5,21.1,29.98,SW,219,8.0,18.0,60,0.00,,,0.00,WUHU216DAVISVP2,2013-01-16 23:13:00,
2013-01-16 18:18:00,33.5,20.7,29.98,West,268,6.0,18.0,59,0.00,,,0.00,WUHU216DAVISVP2,2013-01-16 23:18:00,
2013-01-16 18:23:00,33.6,21.2,29.98,SW,215,4.0,18.0,60,0.00,,,0.00,WUHU216DAVISVP2,2013-01-16 23:23:00,
2013-01-16 18:28:00,33.6,21.2,29.98,WSW,253,12.0,20.0,60,0.00,,,0.00,WUHU216DAVISVP2,2013-01-16 23:28:00,
2013-01-16 18:33:00,33.6,21.2,29.98,WSW,244,8.0,20.0,60,0.00,,,0.00,WUHU216DAVISVP2,2013-01-16 23:33:00,
2013-01-16 18:38:00,33.6,21.2,29.98,WSW,244,0.0,20.0,60,0.00,,,0.00,WUHU216DAVISVP2,2013-01-16 23:38:00,
2013-01-16 18:43:00,33.5,20.7,29.99,West,275,2.0,20.0,59,0.00,,,0.00,WUHU216DAVISVP2,2013-01-16 23:43:00,
2013-01-16 18:48:00,33.5,21.1,29.99,WSW,250,8.0,18.0,60,0.00,,,0.00,WUHU216DAVISVP2,2013-01-16 23:48:00,
2013-01-16 18:53:00,33.6,20.8,29.99,SW,219,6.0,20.0,59,0.00,,,0.00,WUHU216DAVISVP2,2013-01-16 23:53:00,
2013-01-16 18:58:00,33.7,20.9,30.00,West,269,4.0,22.0,59,0.00,,,0.00,WUHU216DAVISVP2,2013-01-16 23:58:00,
2013-01-16 19:03:00,33.6,21.2,30.00,West,267,2.0,22.0,60,0.00,,,0.00,WUHU216DAVISVP2,2013-01-17 00:03:00,
2013-01-16 19:08:00,33.4,21.0,30.00,SW,232,10.0,16.0,60,0.00,,,0.00,WUHU216DAVISVP2,2013-01-17 00:08:00,
2013-01-16 19:14:00,33.6,21.2,29.99,SSW,199,10.0,22.0,60,0.00,,,0.00,WUHU216DAVISVP2,2013-01-17 00:14:00,
2013-01-16 19:19:00,33.6,21.2,29.99,SW,228,4.0,22.0,60,0.00,,,0.00,WUHU216DAVISVP2,2013-01-17 00:19:00,
2013-01-16 19:24:00,33.5,21.1,29.99,WSW,238,10.0,22.0,60,0.00,,,0.00,WUHU216DAVISVP2,2013-01-17 00:24:00,
2013-01-16 19:29:00,33.5,21.1,29.99,WNW,285,4.0,22.0,60,0.00,,,0.00,WUHU216DAVISVP2,2013-01-17 00:29:00,
2013-01-16 19:34:00,33.6,21.2,29.99,WSW,248,8.0,16.0,60,0.00,,,0.00,WUHU216DAVISVP2,2013-01-17 00:34:00,
2013-01-16 19:39:00,33.6,21.2,29.98,WSW,246,8.0,16.0,60,0.00,,,0.00,WUHU216DAVISVP2,2013-01-17 00:39:00,
2013-01-16 19:44:00,33.7,21.3,29.99,SW,219,8.0,22.0,60,0.00,,,0.00,WUHU216DAVISVP2,2013-01-17 00:44:00,
2013-01-16 19:49:00,33.7,20.9,29.99,SSW,211,4.0,22.0,59,0.00,,,0.00,WUHU216DAVISVP2,2013-01-17 00:49:00,
2013-01-16 19:54:00,33.7,20.9,29.99,WSW,244,14.0,20.0,59,0.00,,,0.00,WUHU216DAVISVP2,2013-01-17 00:54:00,
2013-01-16 19:59:00,33.8,21.0,29.99,North,355,2.0,20.0,59,0.00,,,0.00,WUHU216DAVISVP2,2013-01-17 00:59:00,
2013-01-16 20:04:00,33.6,20.8,29.99,West,269,8.0,18.0,59,0.00,,,0.00,WUHU216DAVISVP2,2013-01-17 01:04:00,
2013-01-16 20:09:00,33.7,21.3,29.99,West,279,4.0,20.0,60,0.00,,,0.00,WUHU216DAVISVP2,2013-01-17 01:09:00,
2013-01-16 20:14:00,33.6,21.2,29.99,West,281,8.0,20.0,60,0.00,,,0.00,WUHU216DAVISVP2,2013-01-17 01:14:00,
2013-01-16 20:19:00,33.5,21.5,30.00,SW,226,2.0,18.0,61,0.00,,,0.00,WUHU216DAVISVP2,2013-01-17 01:19:00,
2013-01-16 20:24:00,33.4,21.4,30.00,WSW,245,8.0,16.0,61,0.00,,,0.00,WUHU216DAVISVP2,2013-01-17 01:24:00,
2013-01-16 20:29:00,33.4,21.4,30.00,West,271,8.0,14.0,61,0.00,,,0.00,WUHU216DAVISVP2,2013-01-17 01:29:00,
2013-01-16 20:34:00,33.4,21.8,30.00,SW,233,4.0,14.0,62,0.00,,,0.00,WUHU216DAVISVP2,2013-01-17 01:34:00,
2013-01-16 20:40:00,33.3,21.7,30.00,SW,229,12.0,18.0,62,0.00,,,0.00,WUHU216DAVISVP2,2013-01-17 01:40:00,
2013-01-16 20:45:00,33.3,22.1,30.00,SW,225,8.0,18.0,63,0.00,,,0.00,WUHU216DAVISVP2,2013-01-17 01:45:00,
2013-01-16 20:50:00,33.2,22.0,30.00,SW,217,10.0,22.0,63,0.00,,,0.00,WUHU216DAVISVP2,2013-01-17 01:50:00,
2013-01-16 20:55:00,33.3,22.1,30.00,WNW,291,14.0,22.0,63,0.00,,,0.00,WUHU216DAVISVP2,2013-01-17 01:55:00,
2013-01-16 21:00:00,33.4,22.2,30.00,WSW,238,6.0,18.0,63,0.00,,,0.00,WUHU216DAVISVP2,2013-01-17 02:00:00,
2013-01-16 21:05:00,33.4,22.2,30.00,SW,234,8.0,22.0,63,0.00,,,0.00,WUHU216DAVISVP2,2013-01-17 02:05:00,
2013-01-16 21:10:00,33.4,22.2,30.00,NW,313,4.0,22.0,63,0.00,,,0.00,WUHU216DAVISVP2,2013-01-17 02:10:00,
2013-01-16 21:15:00,33.5,22.7,30.00,WNW,289,4.0,14.0,64,0.00,,,0.00,WUHU216DAVISVP2,2013-01-17 02:15:00,
2013-01-16 21:20:00,33.5,22.7,30.01,SW,227,2.0,14.0,64,0.00,,,0.00,WUHU216DAVISVP2,2013-01-17 02:20:00,
2013-01-16 21:25:00,33.6,22.8,30.01,WNW,291,6.0,18.0,64,0.00,,,0.00,WUHU216DAVISVP2,2013-01-17 02:25:00,
2013-01-16 21:30:00,33.6,22.8,30.01,SW,218,4.0,18.0,64,0.00,,,0.00,WUHU216DAVISVP2,2013-01-17 02:30:00,
2013-01-16 21:35:00,33.7,22.9,30.01,West,261,12.0,24.0,64,0.00,,,0.00,WUHU216DAVISVP2,2013-01-17 02:35:00,
2013-01-16 21:40:00,33.7,22.9,30.02,West,273,4.0,24.0,64,0.00,,,0.00,WUHU216DAVISVP2,2013-01-17 02:40:00,
2013-01-16 21:45:00,33.7,22.9,30.01,NW,324,2.0,24.0,64,0.00,,,0.00,WUHU216DAVISVP2,2013-01-17 02:45:00,
2013-01-16 21:50:00,33.7,22.9,30.01,West,271,14.0,24.0,64,0.00,,,0.00,WUHU216DAVISVP2,2013-01-17 02:50:00,
2013-01-16 21:55:00,33.7,22.9,30.02,WNW,296,8.0,20.0,64,0.00,,,0.00,WUHU216DAVISVP2,2013-01-17 02:55:00,
2013-01-16 22:00:00,33.7,22.9,30.02,WSW,241,8.0,24.0,64,0.00,,,0.00,WUHU216DAVISVP2,2013-01-17 03:00:00,
2013-01-16 22:05:00,33.8,23.0,30.03,SW,221,4.0,24.0,64,0.00,,,0.00,WUHU216DAVISVP2,2013-01-17 03:05:00,
2013-01-16 22:10:00,33.7,23.3,30.03,NNW,334,4.0,18.0,65,0.00,,,0.00,WUHU216DAVISVP2,2013-01-17 03:10:00,
2013-01-16 22:15:00,33.7,23.3,30.03,West,271,8.0,20.0,65,0.00,,,0.00,WUHU216DAVISVP2,2013-01-17 03:15:00,
2013-01-16 22:20:00,33.7,22.9,30.03,WSW,243,4.0,26.0,64,0.00,,,0.00,WUHU216DAVISVP2,2013-01-17 03:20:00,
2013-01-16 22:25:00,33.7,23.3,30.03,WSW,242,8.0,26.0,65,0.00,,,0.00,WUHU216DAVISVP2,2013-01-17 03:25:00,
2013-01-16 22:30:00,33.8,23.0,30.03,WNW,290,6.0,14.0,64,0.00,,,0.00,WUHU216DAVISVP2,2013-01-17 03:30:00,
2013-01-16 22:35:00,33.8,23.0,30.04,West,274,4.0,20.0,64,0.00,,,0.00,WUHU216DAVISVP2,2013-01-17 03:35:00,
2013-01-16 22:40:00,33.8,23.3,30.04,West,259,8.0,20.0,65,0.00,,,0.00,WUHU216DAVISVP2,2013-01-17 03:40:00,
2013-01-16 22:45:00,33.8,23.0,30.03,SW,226,6.0,18.0,64,0.00,,,0.00,WUHU216DAVISVP2,2013-01-17 03:45:00,
2013-01-16 22:51:00,33.8,23.0,30.03,WNW,294,10.0,28.0,64,0.00,,,0.00,WUHU216DAVISVP2,2013-01-17 03:51:00,
2013-01-16 22:56:00,33.8,23.0,30.04,WNW,286,8.0,28.0,64,0.00,,,0.00,WUHU216DAVISVP2,2013-01-17 03:56:00,
2013-01-16 23:01:00,33.6,23.5,30.04,ENE,58,6.0,26.0,66,0.00,,,0.00,WUHU216DAVISVP2,2013-01-17 04:01:00,
2013-01-16 23:06:00,33.4,23.7,30.04,WSW,246,4.0,26.0,67,0.00,,,0.00,WUHU216DAVISVP2,2013-01-17 04:06:00,
2013-01-16 23:11:00,33.3,23.6,30.04,West,273,2.0,20.0,67,0.00,,,0.00,WUHU216DAVISVP2,2013-01-17 04:11:00,
2013-01-16 23:16:00,33.3,23.6,30.04,NNW,348,10.0,14.0,67,0.00,,,0.00,WUHU216DAVISVP2,2013-01-17 04:16:00,
2013-01-16 23:21:00,33.4,23.7,30.04,WSW,240,10.0,26.0,67,0.00,,,0.00,WUHU216DAVISVP2,2013-01-17 04:21:00,
2013-01-16 23:26:00,33.4,23.7,30.04,WSW,242,4.0,26.0,67,0.00,,,0.00,WUHU216DAVISVP2,2013-01-17 04:26:00,
2013-01-16 23:31:00,33.5,23.4,30.04,West,275,16.0,22.0,66,0.00,,,0.00,WUHU216DAVISVP2,2013-01-17 04:31:00,
2013-01-16 23:36:00,33.5,23.8,30.04,WSW,250,4.0,22.0,67,0.00,,,0.00,WUHU216DAVISVP2,2013-01-17 04:36:00,
2013-01-16 23:41:00,33.5,23.4,30.04,WNW,294,4.0,18.0,66,0.00,,,0.00,WUHU216DAVISVP2,2013-01-17 04:41:00,
2013-01-16 23:46:00,33.5,23.8,30.04,WSW,255,20.0,20.0,67,0.00,,,0.00,WUHU216DAVISVP2,2013-01-17 04:46:00,
2013-01-16 23:51:00,33.5,23.8,30.04,WSW,244,4.0,20.0,67,0.00,,,0.00,WUHU216DAVISVP2,2013-01-17 04:51:00,
2013-01-16 23:56:00,33.5,23.8,30.04,WSW,246,14.0,22.0,67,0.00,,,0.00,WUHU216DAVISVP2,2013-01-17 04:56:00,